Pascanas, Argentina
Current Conditions -  °F | °C
As of 4:00 PM on Saturday 25 Oct 2014 (Local Time) from SAOC Reporting Station
Clear Clear  
Wind Chill: 34°   Ceiling: Unl
Heat Index: 34°   Visibility: 6mi
Dew Point: 12°   Wind: 23mph
Humidity: 26%   Direction: 340°NNW
Pressure: 29.77"   Gusts: 35mph
Location:  33.13°S, 63.05°W
Report Text: SAOC 251900Z 34020G30KT CAVOK 34/12 Q1008
Loading
Personal Weather Stations






























Interactive Weather Map
Tropical Storm Tracking
New forecast layout! Learn more

10-Day Weather Forecast

Advertisements
Track Severe Weather on mobile